When you browse on this site, cookies collect data to enhance your experience and personalize the content and advertising you see.
Visit our Privacy Policy to learn more. By continuing to use the site, you agree to this use of cookies and data.
  • Em Portugal
  • Lista de países
  • Para 7 dias
  • Temperatura da água
  • Mapas de satélite
  • Mapa do tempo
  • Widgets de tempo
  • user-avatar
    Iniciar Sessão

    Previsão horária em Yukovo

    Hoje, 16 Novembro, Sexta-feira

    Tempo Temperatura Precipitação Vento Pressão Humidade
    00:00 0°C° 0 mm 1 m/s 759 mmHg 91%
    01:00 0°C° 0 mm 1 m/s 760 mmHg 90%
    02:00 -2°C° 0 mm 1 m/s 760 mmHg 85%
    03:00 -2°C° 0 mm 1 m/s 760 mmHg 84%
    04:00 -2°C° 0 mm 1 m/s 760 mmHg 83%
    05:00 -3°C° 0 mm 1 m/s 761 mmHg 82%
    06:00 -5°C° 0 mm 2 m/s 761 mmHg 81%
    07:00 -5°C° 0 mm 2 m/s 761 mmHg 80%
    08:00 -5°C° 0 mm 2 m/s 762 mmHg 79%
    09:00 -4°C° 0 mm 2 m/s 762 mmHg 76%
    10:00 -1°C° 0 mm 1 m/s 762 mmHg 72%
    11:00 +1°C° 0 mm 1 m/s 763 mmHg 69%
    12:00 +1°C° 0 mm 1 m/s 763 mmHg 71%
    13:00 +1°C° 0 mm 1 m/s 763 mmHg 72%
    14:00 +1°C° 0 mm 1 m/s 763 mmHg 74%
    15:00 0°C° 0 mm 1 m/s 763 mmHg 74%
    16:00 -1°C° 0 mm 1 m/s 763 mmHg 74%
    17:00 -2°C° 0 mm 1 m/s 763 mmHg 74%
    18:00 -2°C° 0 mm 1 m/s 763 mmHg 73%
    19:00 -2°C° 0 mm 1 m/s 763 mmHg 72%
    20:00 -2°C° 0 mm 1 m/s 763 mmHg 70%
    21:00 -3°C° 0 mm 1 m/s 763 mmHg 69%
    22:00 -3°C° 0 mm 1 m/s 763 mmHg 67%
    23:00 -3°C° 0 mm 1 m/s 763 mmHg 65%

    Amanhã, 17 Novembro, Sábado

    Tempo Temperatura Precipitação Vento Pressão Humidade
    00:00 -3°C° 0 mm 1 m/s 763 mmHg 64%
    01:00 -3°C° 0 mm 1 m/s 763 mmHg 62%
    02:00 -4°C° 0 mm 0 m/s 763 mmHg 61%
    03:00 -4°C° 0 mm 0 m/s 762 mmHg 60%
    04:00 -4°C° 0 mm 0 m/s 762 mmHg 59%
    05:00 -4°C° 0 mm 0 m/s 762 mmHg 58%
    06:00 -3°C° 0 mm 1 m/s 762 mmHg 59%
    07:00 -3°C° 0 mm 1 m/s 762 mmHg 59%
    08:00 -3°C° 0 mm 1 m/s 761 mmHg 59%
    09:00 -2°C° 0 mm 1 m/s 761 mmHg 59%
    10:00 -1°C° 0 mm 1 m/s 761 mmHg 59%
    11:00 0°C° 0 mm 1 m/s 761 mmHg 59%
    12:00 -1°C° 0 mm 2 m/s 760 mmHg 62%
    13:00 -1°C° 0 mm 2 m/s 759 mmHg 65%
    14:00 -1°C° 0 mm 2 m/s 759 mmHg 67%
    15:00 -2°C° 0 mm 2 m/s 758 mmHg 69%
    16:00 -2°C° 0 mm 3 m/s 757 mmHg 70%
    17:00 -2°C° 0 mm 3 m/s 757 mmHg 71%
    18:00 -2°C° 0 mm 3 m/s 756 mmHg 73%
    19:00 -2°C° 0 mm 3 m/s 755 mmHg 75%
    20:00 -3°C° 0 mm 4 m/s 755 mmHg 76%
    21:00 -3°C° 0 mm 4 m/s 754 mmHg 80%
    22:00 -4°C° 0 mm 4 m/s 753 mmHg 84%
    23:00 -4°C° 0 mm 4 m/s 753 mmHg 88%

    Depois de amanhã, 18 Novembro, Domingo

    Tempo Temperatura Precipitação Vento Pressão Humidade
    00:00 -3°C° 0 mm 4 m/s 752 mmHg 90%
    01:00 -3°C° 0 mm 4 m/s 751 mmHg 91%
    02:00 -2°C° 0 mm 4 m/s 750 mmHg 93%
    03:00 -2°C° 0.1 mm 4 m/s 749 mmHg 94%
    04:00 -1°C° 0.1 mm 4 m/s 748 mmHg 95%
    05:00 -1°C° 0.1 mm 4 m/s 747 mmHg 96%
    06:00 -1°C° 0.1 mm 4 m/s 747 mmHg 96%
    07:00 -1°C° 0.1 mm 4 m/s 746 mmHg 96%
    08:00 -1°C° 0.1 mm 4 m/s 746 mmHg 97%
    09:00 0°C° 0.1 mm 3 m/s 746 mmHg 97%
    10:00 +1°C° 0.1 mm 3 m/s 745 mmHg 97%
    11:00 +1°C° 0.1 mm 3 m/s 745 mmHg 98%
    12:00 +1°C° 0.1 mm 3 m/s 745 mmHg 98%
    13:00 +1°C° 0.1 mm 3 m/s 745 mmHg 98%
    14:00 +2°C° 0.1 mm 2 m/s 744 mmHg 98%
    15:00 +2°C° 0.3 mm 2 m/s 744 mmHg 98%
    16:00 +1°C° 0.3 mm 2 m/s 744 mmHg 98%
    17:00 +1°C° 0.3 mm 2 m/s 744 mmHg 98%
    18:00 0°C° 0.2 mm 3 m/s 744 mmHg 97%
    19:00 0°C° 0.2 mm 3 m/s 744 mmHg 97%
    20:00 0°C° 0.2 mm 3 m/s 744 mmHg 96%
    21:00 0°C° 0.1 mm 3 m/s 744 mmHg 96%
    22:00 0°C° 0.1 mm 3 m/s 745 mmHg 96%
    23:00 0°C° 0.1 mm 3 m/s 745 mmHg 96%

    19 Novembro, Segunda-feira

    Tempo Temperatura Precipitação Vento Pressão Humidade
    00:00 0°C° 0 mm 3 m/s 745 mmHg 96%
    01:00 0°C° 0 mm 3 m/s 745 mmHg 96%
    02:00 0°C° 0 mm 3 m/s 746 mmHg 96%
    03:00 0°C° 0.1 mm 3 m/s 746 mmHg 96%
    04:00 0°C° 0.1 mm 3 m/s 746 mmHg 96%
    05:00 0°C° 0.1 mm 3 m/s 746 mmHg 95%
    06:00 -1°C° 0.1 mm 4 m/s 746 mmHg 95%
    07:00 -1°C° 0.1 mm 4 m/s 746 mmHg 95%
    08:00 -1°C° 0.1 mm 4 m/s 747 mmHg 94%
    09:00 -1°C° 0.2 mm 4 m/s 747 mmHg 94%
    10:00 -1°C° 0.2 mm 4 m/s 747 mmHg 94%
    11:00 -1°C° 0.2 mm 4 m/s 748 mmHg 94%
    12:00 -1°C° 0.2 mm 4 m/s 748 mmHg 94%
    13:00 -1°C° 0.2 mm 4 m/s 748 mmHg 94%
    14:00 0°C° 0.2 mm 3 m/s 748 mmHg 94%
    15:00 0°C° 0.1 mm 3 m/s 749 mmHg 94%
    16:00 0°C° 0.1 mm 3 m/s 749 mmHg 94%
    17:00 -1°C° 0.1 mm 3 m/s 749 mmHg 94%
    18:00 -1°C° 0.2 mm 3 m/s 749 mmHg 94%
    19:00 -1°C° 0.2 mm 3 m/s 750 mmHg 94%
    20:00 -2°C° 0.2 mm 4 m/s 750 mmHg 94%
    21:00 -2°C° 0.1 mm 4 m/s 750 mmHg 93%
    22:00 -3°C° 0.1 mm 4 m/s 751 mmHg 92%
    23:00 -3°C° 0.1 mm 4 m/s 751 mmHg 91%

    20 Novembro, Terça-feira

    Tempo Temperatura Precipitação Vento Pressão Humidade
    00:00 -4°C° 0 mm 4 m/s 751 mmHg 90%
    01:00 -5°C° 0 mm 3 m/s 751 mmHg 90%
    02:00 -5°C° 0 mm 3 m/s 752 mmHg 90%
    03:00 -6°C° 0 mm 3 m/s 751 mmHg 89%
    04:00 -6°C° 0 mm 3 m/s 751 mmHg 89%
    05:00 -6°C° 0 mm 3 m/s 751 mmHg 88%
    06:00 -6°C° 0 mm 3 m/s 751 mmHg 88%
    07:00 -6°C° 0 mm 3 m/s 751 mmHg 88%
    08:00 -5°C° 0 mm 4 m/s 751 mmHg 88%
    09:00 -5°C° 0 mm 4 m/s 751 mmHg 87%
    10:00 -4°C° 0 mm 4 m/s 751 mmHg 87%
    11:00 -3°C° 0 mm 4 m/s 751 mmHg 86%
    12:00 -3°C° 0 mm 4 m/s 751 mmHg 85%
    13:00 -2°C° 0 mm 4 m/s 751 mmHg 84%
    14:00 -1°C° 0 mm 3 m/s 750 mmHg 84%
    15:00 -2°C° 0 mm 3 m/s 750 mmHg 84%
    16:00 -2°C° 0 mm 3 m/s 750 mmHg 85%
    17:00 -2°C° 0 mm 3 m/s 750 mmHg 86%
    18:00 -2°C° 0 mm 3 m/s 750 mmHg 85%
    19:00 -2°C° 0 mm 3 m/s 750 mmHg 85%
    20:00 -4°C° 0 mm 3 m/s 750 mmHg 84%
    21:00 -4°C° 0 mm 3 m/s 750 mmHg 86%
    22:00 -3°C° 0 mm 2 m/s 749 mmHg 88%
    23:00 -4°C° 0 mm 2 m/s 749 mmHg 89%

    21 Novembro, Quarta-feira

    Tempo Temperatura Precipitação Vento Pressão Humidade
    00:00 -4°C° 0 mm 2 m/s 749 mmHg 91%
    01:00 -4°C° 0 mm 2 m/s 749 mmHg 92%
    02:00 -4°C° 0 mm 2 m/s 749 mmHg 94%
    03:00 -4°C° 0 mm 2 m/s 749 mmHg 94%
    04:00 -3°C° 0 mm 2 m/s 749 mmHg 94%
    05:00 -3°C° 0 mm 2 m/s 748 mmHg 93%
    06:00 -4°C° 0 mm 3 m/s 748 mmHg 93%
    07:00 -4°C° 0 mm 3 m/s 748 mmHg 93%
    08:00 -4°C° 0 mm 3 m/s 748 mmHg 93%
    09:00 -2°C° 0 mm 3 m/s 748 mmHg 91%
    10:00 -2°C° 0 mm 3 m/s 748 mmHg 90%
    11:00 -2°C° 0 mm 3 m/s 748 mmHg 88%
    12:00 -3°C° 0 mm 4 m/s 747 mmHg 88%
    13:00 -3°C° 0 mm 4 m/s 747 mmHg 88%
    14:00 -3°C° 0 mm 4 m/s 747 mmHg 88%
    15:00 -3°C° 0 mm 4 m/s 746 mmHg 88%
    16:00 -3°C° 0 mm 4 m/s 746 mmHg 88%
    17:00 -5°C° 0 mm 5 m/s 746 mmHg 88%
    18:00 -5°C° 0 mm 5 m/s 746 mmHg 88%
    19:00 -4°C° 0 mm 4 m/s 746 mmHg 88%
    20:00 -5°C° 0 mm 4 m/s 745 mmHg 88%
    21:00 -5°C° 0 mm 4 m/s 745 mmHg 87%
    22:00 -6°C° 0 mm 5 m/s 745 mmHg 87%
    23:00 -6°C° 0 mm 5 m/s 745 mmHg 86%
    Mostrar mais